Overview Statistics Trail Chart Weather Telemetry Raw packets
 

This is the latest recevied weather packets stored in our database for station/object K7PMV-13. If no packets are shown the sender has not sent any weather packets the latest 10 day(s).

<< 39 40 41 42 43 44 45 >>
Time Temp. Humidity Pressure Rain* Wind** Luminosity Snow
1777408650 28.33° C 20% 1011.8 hPa 0 mm - 935 W/m² -
1777408344 28.89° C 19% 1011.9 hPa 0 mm - 940 W/m² -
1777408041 28.89° C 19% 1012 hPa 0 mm - 898 W/m² -
1777407736 28.33° C 20% 1011.9 hPa 0 mm - 970 W/m² -
1777407430 28.33° C 21% 1011.9 hPa 0 mm - 953 W/m² -
1777407127 28.33° C 22% 1011.9 hPa 0 mm - 919 W/m² -
1777406825 27.78° C 21% 1011.9 hPa 0 mm - 960 W/m² -
1777406515 27.78° C 22% 1012.1 hPa 0 mm - 954 W/m² -
1777406212 28.33° C 22% 1012.1 hPa 0 mm - 969 W/m² -
1777405909 27.78° C 22% 1012.2 hPa 0 mm - 962 W/m² -
1777405607 28.33° C 21% 1012.3 hPa 0 mm - 962 W/m² -
1777405305 27.78° C 22% 1012.3 hPa 0 mm - 930 W/m² -
1777405002 27.78° C 21% 1012.3 hPa 0 mm - 970 W/m² -
1777404692 28.33° C 21% 1012.4 hPa 0 mm - 963 W/m² -
1777404389 28.33° C 22% 1012.5 hPa 0 mm - 967 W/m² -
1777404079 28.33° C 23% 1012.6 hPa 0 mm - 965 W/m² -
1777403776 27.78° C 23% 1012.6 hPa 0 mm - 965 W/m² -
1777403473 27.78° C 22% 1012.8 hPa 0 mm - 962 W/m² -
1777403171 27.78° C 22% 1012.9 hPa 0 mm - 956 W/m² -
1777402868 26.67° C 23% 1012.9 hPa 0 mm - 960 W/m² -
1777402557 - - - - - - -
1777401681 26.11° C 22% 1013.2 hPa 0 mm - 947 W/m² -
1777401378 26.67° C 22% 1013.2 hPa 0 mm - 947 W/m² -
1777400591 26.11° C 25% 1013.3 hPa 0 mm - 916 W/m² -
1777400288 25.56° C 25% 1013.5 hPa 0 mm - 879 W/m² -

* Rain latest hour (hover to see other rain measurements)
** Current wind speed in m/s (hover to see current wind gust speed)